Location: Claremont
(33.9858°S, 18.4575°E)
Time: 04:16:25
(UTC+00:00)

N. Korean satellite - Visible Passes

Search period start: 30 November 2022 00:00
Search period end: 10 December 2022 00:00
Orbit: 421 x 454 km, 97.3° (Epoch: 29 November)

Date Brightness Start Highest point End Pass type
(mag) Time Alt. Az. Time Alt. Az. Time Alt. Az.
01 Dec 9.4 02:42:03 10° ENE 02:44:37 21° ESE 02:47:11 10° SSE visible
03 Dec 8.4 02:56:25 10° NE 02:59:26 33° ESE 03:02:28 10° S visible
06 Dec 9.6 02:33:24 10° ENE 02:35:25 15° ESE 02:37:27 10° SSE visible
08 Dec 9.1 02:47:09 10° NE 02:49:51 24° ESE 02:52:34 10° SSE visible
